Reflectivity
-20 -20 -20 -20 -20 -20 -20 -20 -20 -20 -20 -20 -20 -20 -20 -20 -20 -20 -20 -20 -20 -20 -20 -20 -20 -20 -20 -20 -20 -20 -20 -20 -20 -20 -20 -20 -20 -20 -20 -20 -20 -20 -20 -20
-20 -20 -20 -20 -20 -20 -20 -20 -20 -20 -20 -20 -20 -20 -20 -17 -20 -20 -20 -20 -19 -20 -20 -20 -20 -20 -20 -20 -20 -20 -20 -20 -20 -20 -20 -20 -20 -20 -20 -20 -20 -20 -20 -20
-20 -20 -20 -20 -20 -20 -20 -20 -20 -20 -20 -20 -20 -20 -20 -20 -20 -20 -20 -20 -20 -20 -20 -20 -20 -20 -20 -20 -20 -20 -20 -20 -20 -20 -20 -20 -20 -20 -20 -20 -20 -20 -20 -20
-20 -20 -20 -20 -20 -20 -20 -20 -20 -20 -20 -16 -19 -20 -18 -20 -20 -14 -20 -20 -20 -20 -19 -20 -20 -20 -20 -20 -20 -20 -20 -20 -20 -20 -20 -20 -20 -20 -20 -20 -20 -20 -20 -20
-20 -20 -20 -20 -20 -20 -20 -20 -20 -20 -20 -20 -20 -20 -20 -15 -15 -3 -20 -18 -20 -20 -20 -20 -20 -20 -20 -20 -20 -20 -20 -20 -20 -20 -20 -20 -20 -20 -20 -20 -20 -20 -20 -20
-20 -20 -20 -20 -20 -20 -20 -20 -20 -20 -20 -20 -20 -20 -20 -20 -20 -20 -20 -20 -20 -17 -20 -20 -20 -20 -20 -20 -20 -20 -20 -20 -20 -20 -20 -20 -20 -20 -20 -20 -20 -20 -20 -20
-20 -20 -20 -20 -20 -20 -20 -20 -20 -20 -20 -20 -20 -20 -20 -20 -20 -20 -20 -20 -20 -20 -20 -20 -20 -20 -20 -20 -20 -20 -20 -20 -20 -20 -20 -20 -20 -20 -20 -20 -20 -20 -20 -20
-20 -20 -20 -20 -20 -20 -20 -20 -20 -20 -20 -20 -20 -20 -20 -20 -20 -10 -20 -20 -20 -20 -20 -20 -20 -20 -20 -20 -20 -20 -20 -20 -20 -20 -20 -20 -20 -20 -20 -20 -20 -20 -20 -20
-20 -20 -20 -20 -20 -20 -20 -20 -20 -20 -20 -20 -20 -20 -20 -20 -20 -20 -20 -20 -20 -20 -20 -20 -20 -20 -20 -20 -20 -20 -20 -20 -20 -20 -20 -20 -20 -20 -20 -20 -20 -20 -20 -20
-20 -20 -20 -20 -20 -20 -20 -20 -20 -20 -20 -20 -20 -20 -20 -20 -20 -20 -20 -20 -20 -20 -20 -20 -20 -20 -20 -20 -20 -20 -20 -20 -20 -20 -20 -20 -20 -20 -20 -20 -20 -19 -20 -20
-20 -20 -20 -20 -20 -20 -20 -20 -20 -20 -20 -20 -20 -20 -20 -20 -20 -20 -20 -20 -20 -20 -20 -20 -20 -20 -20 -20 -20 -20 -20 -20 -20 -20 -20 -20 -20 -20 -20 -20 -20 -20 -20 -8
-20 -20 -20 -20 -20 -20 -20 -20 -20 -20 -20 -20 -20 -20 -20 -20 -20 -20 -20 -20 -20 -20 -20 -20 -20 -20 -20 -20 -20 -20 -20 -20 -20 -20 -20 -20 -20 -20 -20 -20 -20 -20 4 18
-20 -20 -20 -20 -20 -20 -20 -20 -20 -20 -20 -20 -20 -20 -20 -20 -20 -20 -20 -20 -20 -20 -20 -20 -20 -20 -20 -20 -20 -20 -20 -20 -20 -20 -20 -20 -20 -20 -20 -20 -20 11 -19 -18
-20 -20 -20 -20 -20 -20 -20 -20 -20 -20 -20 -20 -20 -20 -20 -20 -20 -20 -20 -20 -20 -20 -20 -20 -20 -20 -20 -20 -20 -20 -20 -20 -20 -20 -20 -20 -20 -20 -20 -20 15 12 -17 -20
-20 -20 -20 -20 -20 -20 -20 -20 -20 -20 -20 -20 -20 -20 -20 -20 -20 -20 -20 -20 -20 -20 -20 -20 -20 -20 -20 -20 -20 -20 -20 -20 -20 -20 -20 -20 -20 -20 -20 15 -6 -20 -20 -20
-20 -20 -20 -20 -20 -20 -20 -20 -20 -20 -20 -20 -20 -20 -20 -20 -20 -20 -20 -20 -20 -20 -20 -20 -20 -20 -20 -20 -20 -20 -20 -20 -20 -20 -20 -20 -20 -19 1 -20 -20 -20 -20 -20
-20 -20 -20 -20 -20 -20 -20 -20 -20 -20 -20 -20 -20 -20 -20 -20 -20 -20 -20 -20 -20 -20 -20 -20 -20 -20 -20 -20 -20 -20 -20 -20 -20 -20 7 -0 -13 -20 -20 -20 -20 -20 -20 -20
-20 -20 -20 -20 -20 -20 -20 -20 -20 -20 -20 -20 -20 -20 -20 -20 -20 -20 -20 -20 -20 -20 -20 -20 -20 -20 -20 -20 -20 -20 -20 -20 -20 -20 -20 -20 -20 -20 -20 -20 -20 -20 -20 -20
-20 -20 -20 -20 -20 -20 -20 -20 -20 -20 -20 -20 -20 -20 -20 -20 -20 -20 -20 -20 -20 -20 -20 -20 -20 -20 -20 -20 -20 -20 -20 -20 -20 -20 -20 -20 -20 -20 -20 -20 -20 -20 -20 -20
-11 -7 -20 -20 -20 -20 -20 -20 -20 -20 -20 -20 -20 -20 -20 -20 -20 -20 -20 -20 -20 -20 -20 -20 -20 -20 -20 -20 -20 -20 -20 -20 -20 -20 -20 -20 -20 -20 -20 -20 -20 -20 -20 -20
-20 12 -20 -20 -20 -20 -20 -20 -20 -20 -20 -20 -20 -20 -20 -20 -20 -20 -20 -20 -20 -20 -20 -20 -20 -20 -20 -20 -20 -20 -20 -20 -20 -20 -20 -20 -20 -20 -20 -20 -20 -20 -20 -20
-20 -20 -20 -19 -20 -20 -20 -20 -20 -20 -20 -20 -20 -20 -20 -20 -20 -20 -20 -20 -20 -20 -20 -20 -20 -20 -20 -20 -20 -20 -20 -20 -20 -20 -20 -20 -20 -20 -20 -20 -20 -20 -20 -20
-20 -20 18 12 -20 -20 -20 -20 -20 -20 -20 -20 -20 -20 -20 -20 -20 -20 -20 -20 -20 -20 -20 -20 -20 -20 -20 -20 -20 -20 -20 -20 -20 -20 -20 -20 -20 -20 -20 -20 -20 -20 -20 -20
-6 -10 -20 -20 -20 -20 -20 -4 -20 -20 -20 -20 -20 -20 -20 -20 -20 -20 -20 -20 -20 -20 -20 -20 -20 -20 -20 -20 -20 -20 -20 -20 -20 -20 -20 -20 -20 -20 -20 -20 -20 -20 -20 -20
-20 2 -1 -19 -20 -20 -20 -17 -20 -20 -20 -20 -20 -20 -20 -20 -20 -20 -20 -20 -20 -20 -20 -20 -20 -20 -20 -20 -20 -20 -20 -20 -20 -20 -20 -20 -20 -20 -20 -20 -20 -20 -20 -20
-20 -18 29 24 -20 -20 -19 10 -20 -20 -20 -20 -20 -20 -20 -20 -20 -20 -20 -20 -20 -20 -20 -20 -20 -20 -20 -20 -20 -20 -20 -20 -20 -20 -20 -20 -20 -20 -20 -20 -20 -20 -20 -20
Wind_Speed
2 4 5 8 7 1 3 4 6 6 7 7 12 14 8 8 5 8 8 9 10 12 8 7 7 7 8 7 8 8 8 7 6 3 4 3 4 2 2 3 5 6 6 6
5 5 6 2 3 4 3 3 7 7 4 8 6 12 6 10 13 16 15 12 13 7 7 8 9 9 10 11 9 8 8 8 5 4 3 3 4 2 3 3 4 5 6 6
7 6 4 3 3 4 3 4 4 6 3 1 3 4 4 6 8 7 9 12 11 15 13 11 12 13 11 11 11 10 9 9 7 6 4 4 5 4 3 2 3 2 5 6
4 3 5 2 5 7 4 5 1 3 4 3 3 4 5 3 7 9 14 15 14 14 11 10 13 13 14 12 9 8 8 9 7 8 6 7 5 4 3 3 3 3 4 5
9 3 4 5 7 6 7 3 2 2 2 2 1 4 8 4 6 7 12 14 13 14 15 15 17 17 12 11 11 8 8 8 7 8 7 6 5 3 3 3 6 4 4 5
7 2 4 6 2 2 4 4 8 5 3 2 7 6 7 3 5 7 2 7 10 8 11 10 7 10 10 9 9 9 10 9 7 7 7 7 8 6 5 4 4 4 3 3
4 3 3 2 3 2 6 7 3 4 4 7 1 4 9 5 6 5 4 4 2 6 8 8 11 13 13 15 13 12 12 8 7 8 7 7 7 7 7 7 5 5 3 3
6 6 6 3 6 8 5 8 7 5 3 5 3 5 6 3 2 4 5 4 3 2 3 8 10 11 13 14 14 13 12 8 8 8 6 5 5 3 3 4 5 4 4 5
6 6 4 3 3 9 4 3 5 7 2 1 4 6 5 3 2 5 5 5 5 5 5 6 7 8 10 12 13 13 12 8 8 7 7 7 6 7 7 9 9 8 8 6
7 1 2 1 3 4 6 6 4 4 3 4 4 5 6 7 6 2 1 4 5 6 7 6 5 5 6 7 7 8 9 10 9 10 9 9 10 11 11 11 12 10 8 9
5 5 4 2 5 9 2 2 6 5 4 6 1 7 6 5 9 9 6 3 4 6 5 6 5 4 6 7 9 10 12 13 12 12 12 13 12 12 12 11 10 9 7 7
6 6 5 9 2 2 3 6 7 7 5 1 3 8 0 7 9 11 8 6 4 5 5 5 6 8 9 9 9 11 12 14 13 13 14 14 13 12 12 11 9 7 8 6
9 2 2 7 7 4 3 3 4 5 4 7 6 8 3 4 7 7 10 7 5 5 6 7 8 9 9 11 11 12 12 14 13 14 15 13 13 12 11 9 8 7 7 6
3 3 9 11 8 6 5 5 5 6 4 5 7 7 5 6 8 8 8 7 6 6 7 8 8 9 10 11 12 13 13 13 14 14 14 13 12 11 10 8 8 7 6 6
3 6 5 6 7 7 8 7 9 8 7 8 6 9 8 10 16 12 8 8 8 8 8 8 8 9 9 11 12 12 13 12 13 14 13 12 10 10 9 8 7 6 6 5
6 4 4 4 4 7 5 5 8 4 4 6 3 8 8 3 11 10 12 12 10 9 9 10 10 12 11 12 12 12 12 12 12 13 13 11 11 10 8 7 6 6 6 6
5 4 2 4 2 3 5 8 8 5 5 7 7 12 6 5 9 17 17 16 14 13 13 13 12 11 11 11 12 12 11 11 12 12 11 10 9 9 7 7 7 6 5 5
1 3 3 2 3 4 7 1 7 9 7 10 4 6 11 6 4 8 14 16 15 15 15 13 12 11 10 10 11 11 11 11 11 11 10 9 9 8 7 7 6 5 4 5
7 5 2 3 4 5 3 5 8 9 11 10 14 6 5 5 5 1 10 14 16 17 14 12 12 13 12 13 11 12 11 10 10 9 8 8 8 8 7 7 6 4 4 4
7 4 5 2 3 8 9 4 5 5 6 6 10 9 10 7 5 8 14 14 15 15 15 15 13 13 13 10 11 12 10 9 9 9 8 7 7 8 7 7 6 3 2 3
5 2 7 4 5 8 8 4 4 6 11 2 6 7 13 8 5 7 18 16 17 17 18 15 14 13 12 11 11 11 9 8 7 7 7 6 6 6 7 6 3 4 4 4
8 8 5 2 3 8 5 2 8 9 2 2 6 8 10 4 6 16 17 19 19 19 18 16 14 12 10 10 11 10 9 7 8 8 7 6 6 5 5 6 4 4 4 4
5 3 5 10 9 7 4 4 5 5 4 5 6 6 9 10 7 14 17 18 18 19 16 14 15 13 9 8 10 12 9 10 9 8 7 6 6 5 5 5 4 3 3 2
5 5 5 1 4 7 6 5 5 4 4 4 5 8 13 11 14 14 15 16 16 15 16 13 15 14 11 8 7 10 11 10 10 8 7 5 6 6 5 3 3 3 3 3
4 7 8 12 6 9 3 1 5 6 1 4 6 8 12 17 15 15 16 16 15 16 14 15 15 13 12 10 9 10 10 10 9 8 7 5 4 5 4 2 2 2 3 4
4 3 5 5 3 4 8 9 11 7 5 6 11 9 10 15 19 14 15 15 17 17 16 13 13 13 11 10 10 9 9 10 10 7 5 4 4 4 3 2 1 2 2 2
Wind_Direction
42 97 215 224 209 108 195 203 212 242 195 152 212 236 216 194 211 210 201 189 192 195 197 172 161 150 142 149 157 168 158 163 140 130 127 109 135 120 96 101 114 108 106 101
46 221 221 206 190 224 240 230 238 293 169 180 156 242 241 178 218 207 198 199 194 165 176 169 158 154 176 173 174 170 174 160 165 146 136 133 136 107 106 104 92 105 107 111
164 218 119 176 287 221 225 188 224 220 49 281 125 304 245 243 237 201 213 208 191 185 187 182 178 178 173 177 178 180 176 168 167 145 108 78 79 71 83 93 91 106 114 108
213 263 226 222 251 168 241 209 190 134 113 236 153 262 274 232 250 215 214 197 193 187 188 183 177 182 185 184 172 170 167 169 165 150 136 155 148 151 184 143 136 121 106 105
234 194 208 193 209 165 226 139 116 145 129 88 296 91 265 16 292 237 228 205 194 195 180 190 190 190 180 171 172 167 161 170 157 159 155 147 141 136 120 117 126 112 95 102
211 237 177 207 129 176 141 79 41 48 55 48 241 151 281 219 256 303 337 185 194 180 184 193 168 150 167 161 161 161 167 181 157 157 163 163 163 152 135 127 133 128 104 83
343 255 302 159 120 45 74 66 348 348 0 221 45 97 237 297 311 282 227 109 69 165 179 164 164 172 166 170 169 170 175 174 159 162 172 179 176 170 158 156 142 136 120 83
170 306 181 197 181 182 183 154 158 210 207 262 54 232 254 272 341 37 48 27 40 50 215 191 181 176 170 173 173 177 172 154 155 165 160 137 141 130 113 121 118 104 81 81
154 268 283 204 146 136 194 171 183 111 10 63 241 291 308 169 47 34 33 53 37 41 63 123 146 159 169 170 174 174 161 141 144 137 120 96 94 94 100 98 96 97 97 93
202 282 233 292 104 39 156 157 81 0 143 237 300 278 243 226 199 118 66 60 44 44 47 56 71 135 154 157 140 119 121 122 118 109 105 99 96 94 96 95 95 95 93 96
134 128 282 119 195 180 133 152 55 114 133 167 201 263 217 235 167 183 192 116 70 52 37 34 40 46 113 101 120 121 118 118 109 108 107 101 97 96 94 93 93 96 99 99
204 147 192 207 299 238 178 185 141 126 214 176 153 267 1 250 194 161 168 157 118 91 72 57 49 62 75 88 96 106 109 109 110 110 106 101 99 98 96 96 96 97 93 96
184 233 73 339 355 355 202 164 106 103 83 188 138 261 62 80 127 162 158 154 133 114 87 71 65 71 82 89 94 99 104 108 109 108 105 100 100 100 97 93 95 93 92 85
141 160 167 210 206 165 183 186 163 130 118 175 220 264 273 179 178 175 157 142 130 106 97 93 85 84 89 95 102 105 104 105 109 104 102 102 103 102 102 101 93 88 91 97
108 218 188 226 214 178 193 178 170 181 193 165 232 221 238 214 192 184 147 139 134 126 110 108 106 103 101 105 104 103 102 104 108 105 104 105 105 105 105 97 91 92 92 96
355 282 206 241 184 201 238 205 184 202 133 267 170 262 221 104 115 147 167 159 155 144 131 128 125 119 119 117 112 110 107 108 111 110 111 113 110 107 103 100 99 96 96 100
32 355 71 250 184 118 327 211 194 189 198 156 187 226 161 181 173 176 175 172 160 153 149 144 137 131 130 123 122 116 115 116 112 112 112 112 112 110 108 110 107 103 102 109
270 40 356 212 62 241 235 202 171 195 208 204 239 196 192 207 182 151 172 160 157 153 151 146 139 128 125 121 114 115 117 116 116 115 118 119 115 114 115 112 110 108 113 123
180 118 293 157 211 288 285 196 170 165 257 192 227 153 162 113 70 3 169 164 159 156 150 144 139 134 131 129 128 121 116 119 120 123 125 127 127 127 128 124 125 120 119 124
147 120 149 135 232 219 223 233 171 123 279 224 191 174 155 140 153 233 162 147 140 140 141 138 136 133 130 133 132 125 127 128 132 138 137 132 131 135 133 135 131 118 130 133
129 145 194 159 233 288 252 219 159 126 233 256 173 161 160 193 198 139 138 138 141 143 139 137 140 143 140 135 132 128 131 135 133 123 125 123 128 131 135 132 123 133 131 127
184 164 192 99 153 264 191 79 167 211 190 191 177 167 184 120 114 139 139 140 142 140 138 142 138 137 138 136 132 133 134 135 127 128 125 125 132 129 138 134 136 139 142 149
260 207 224 184 209 227 241 246 205 165 184 209 171 157 143 138 153 149 146 145 146 146 145 145 141 135 134 136 145 141 148 139 134 127 127 132 131 132 142 145 157 166 176 181
241 43 286 49 247 255 266 303 284 202 219 186 155 148 155 149 151 146 144 144 146 148 148 144 141 144 144 140 139 143 147 141 136 132 133 140 134 139 145 156 175 193 204 222
289 352 329 299 312 338 268 221 360 310 213 139 139 157 157 144 158 155 152 151 150 147 147 150 149 150 149 140 136 144 143 140 136 136 142 140 136 135 140 149 195 203 237 212
222 280 194 276 247 244 281 312 309 285 240 208 149 145 161 161 156 157 156 153 150 149 149 146 144 141 143 139 139 138 143 142 139 141 143 145 137 135 132 139 118 18 72 48